This is the latest recevied weather packets stored in our database for station/object MIDVIL-WX. If no packets are shown the sender has not sent any weather packets the latest 10 day(s).
| Time | Temp. | Humidity | Pressure | Rain* | Wind** | Luminosity | Snow |
|---|---|---|---|---|---|---|---|
| 1777734055 | 5.56° C | 50% | 992 hPa | 0 mm | - | - | - |
| 1777733126 | 5.56° C | 56% | 992.1 hPa | 0 mm | - | - | - |
| 1777732241 | 5° C | 59% | 992.6 hPa | 0 mm | - | - | - |
| 1777731326 | 4.44° C | 59% | 992.6 hPa | 0 mm | - | - | - |
| 1777730454 | 4.44° C | 59% | 992.6 hPa | 0 mm | - | - | - |
| 1777729526 | 3.89° C | 73% | 992.4 hPa | 0 mm | - | - | - |
| 1777728644 | 3.89° C | 73% | 992.4 hPa | 0 mm | - | - | - |
| 1777727726 | 2.78° C | 73% | 992.3 hPa | 0 mm | - | - | - |
| 1777726850 | 2.78° C | 73% | 992.3 hPa | 0 mm | - | - | - |
| 1777725926 | 2.22° C | 82% | 991.6 hPa | 0 mm | - | - | - |
| 1777725043 | 1.67° C | 81% | 992.4 hPa | 0 mm | - | - | - |
| 1777724126 | 1.11° C | 81% | 992.4 hPa | 0 mm | - | - | - |
| 1777723257 | 1.11° C | 81% | 992.4 hPa | 0 mm | - | - | - |
| 1777722326 | 0.56° C | 84% | 992.1 hPa | 0 mm | - | - | - |
| 1777721447 | 0° C | 85% | 992.1 hPa | 0 mm | - | - | - |
| 1777720526 | 0° C | 85% | 992.1 hPa | 0 mm | - | - | - |
| 1777719653 | -0.56° C | 85% | 992.1 hPa | 0 mm | - | - | - |
| 1777718725 | -0.56° C | 83% | 991.8 hPa | 0 mm | - | - | - |
| 1777717844 | -0.56° C | 87% | 992.2 hPa | 0 mm | - | - | - |
| 1777716926 | -0.56° C | 87% | 992.2 hPa | 0 mm | - | - | - |
| 1777716052 | -0.56° C | 87% | 992.2 hPa | 0 mm | - | - | - |
| 1777715125 | -0.56° C | 86% | 991.3 hPa | 0 mm | - | - | - |
| 1777713325 | 0° C | 87% | 991.6 hPa | 0 mm | - | - | - |
| 1777712452 | -0.56° C | 87% | 991.6 hPa | 0 mm | - | - | - |
| 1777711525 | 0° C | 83% | 991.3 hPa | 0 mm | - | - | - |
* Rain latest hour (hover to see other rain measurements)
** Current wind speed in m/s (hover to see current wind gust speed)